TimeCST,TemperatureF,Dew PointF,Humidity,Sea Level PressureIn,VisibilityMPH,Wind Direction,Wind SpeedMPH,Gust SpeedMPH,PrecipitationIn,Events,Conditions,WindDirDegrees,DateUTC
12:53 AM,30.0,19.9,66,30.09,10.0,NW,8.1,17.3,N/A,,Clear,310,2013-01-17 06:53:00
1:53 AM,28.0,16.0,61,30.14,10.0,NW,6.9,-,N/A,,Clear,320,2013-01-17 07:53:00
3:53 AM,24.1,12.9,62,30.21,10.0,NNW,6.9,-,N/A,,Clear,330,2013-01-17 09:53:00
4:53 AM,23.0,12.0,63,30.23,10.0,NW,8.1,-,N/A,,Clear,310,2013-01-17 10:53:00
5:53 AM,21.0,10.0,63,30.26,10.0,WNW,5.8,-,N/A,,Clear,300,2013-01-17 11:53:00
6:53 AM,19.0,8.1,62,30.29,10.0,NW,6.9,-,N/A,,Clear,310,2013-01-17 12:53:00
7:53 AM,19.0,8.1,62,30.32,10.0,WNW,8.1,-,N/A,,Clear,300,2013-01-17 13:53:00
8:53 AM,19.9,5.0,52,30.34,10.0,NW,11.5,19.6,N/A,,Clear,310,2013-01-17 14:53:00
9:53 AM,21.0,1.9,44,30.35,10.0,WNW,15.0,-,N/A,,Clear,300,2013-01-17 15:53:00
10:53 AM,23.0,3.0,42,30.35,10.0,NW,15.0,19.6,N/A,,Clear,310,2013-01-17 16:53:00
11:53 AM,24.1,3.0,40,30.35,10.0,NW,11.5,21.9,N/A,,Clear,320,2013-01-17 17:53:00
12:53 PM,24.1,1.9,38,30.35,10.0,NW,16.1,21.9,N/A,,Clear,310,2013-01-17 18:53:00
1:53 PM,24.1,3.9,42,30.35,10.0,NW,9.2,-,N/A,,Clear,320,2013-01-17 19:53:00
2:53 PM,24.1,3.9,42,30.34,10.0,WNW,6.9,-,N/A,,Clear,290,2013-01-17 20:53:00
3:53 PM,24.1,5.0,44,30.34,10.0,WNW,9.2,-,N/A,,Clear,300,2013-01-17 21:53:00
4:53 PM,23.0,7.0,50,30.36,10.0,West,6.9,-,N/A,,Clear,280,2013-01-17 22:53:00
5:53 PM,21.0,7.0,55,30.38,10.0,West,3.5,-,N/A,,Clear,280,2013-01-17 23:53:00
6:53 PM,19.9,8.1,60,30.40,10.0,WSW,3.5,-,N/A,,Clear,250,2013-01-18 00:53:00
7:53 PM,18.0,8.1,65,30.40,10.0,Calm,Calm,-,N/A,,Clear,0,2013-01-18 01:53:00
8:53 PM,17.1,8.1,68,30.42,10.0,Calm,Calm,-,N/A,,Clear,0,2013-01-18 02:53:00
9:53 PM,17.1,8.1,68,30.42,10.0,Calm,Calm,-,N/A,,Clear,0,2013-01-18 03:53:00
10:53 PM,17.1,8.1,68,30.41,10.0,WNW,3.5,-,N/A,,Clear,300,2013-01-18 04:53:00
11:53 PM,15.1,8.1,74,30.43,10.0,West,4.6,-,N/A,,Clear,260,2013-01-18 05:53:00